This is the latest recevied weather packets stored in our database for station/object EA8EE-7. If no packets are shown the sender has not sent any weather packets the latest 10 day(s).
| Time | Temp. | Humidity | Pressure | Rain* | Wind** | Luminosity | Snow |
|---|---|---|---|---|---|---|---|
| 1778262020 | 29.44° C | 51% | 1011.2 hPa | - | - | - | - |
| 1778261420 | 26.11° C | 54% | 1007.3 hPa | - | - | - | - |
| 1778260820 | 27.22° C | 53% | 1013.9 hPa | - | - | - | - |
| 1778242985 | 33.33° C | 38% | 1010.1 hPa | - | - | - | - |
| 1778242385 | 33.33° C | 38% | 1010.4 hPa | - | - | - | - |
| 1778241785 | 33.33° C | 37% | 1006.5 hPa | - | - | - | - |
| 1778241185 | 33.33° C | 38% | 1011.5 hPa | - | - | - | - |
| 1778240585 | 32.78° C | 38% | 1012.3 hPa | - | - | - | - |
| 1778239985 | 32.78° C | 38% | 1010.7 hPa | - | - | - | - |
| 1778239385 | 33.33° C | 37% | 1011.1 hPa | - | - | - | - |
| 1778238785 | 33.33° C | 37% | 1013.3 hPa | - | - | - | - |
| 1778238185 | 32.78° C | 38% | 1015.7 hPa | - | - | - | - |
| 1778237585 | 32.78° C | 37% | 1010.2 hPa | - | - | - | - |
| 1778236984 | 32.78° C | 37% | 1013.2 hPa | - | - | - | - |
| 1778236384 | 32.78° C | 37% | 1003.1 hPa | - | - | - | - |
| 1778235783 | 33.33° C | 37% | 1012.8 hPa | - | - | - | - |
| 1778235184 | 33.33° C | 37% | 1001.2 hPa | - | - | - | - |
| 1778234583 | 33.33° C | 37% | 1000.1 hPa | - | - | - | - |
| 1778233983 | 33.89° C | 37% | 1000.1 hPa | - | - | - | - |
| 1778233383 | 33.33° C | 37% | 1000.1 hPa | - | - | - | - |
| 1778232783 | 33.33° C | 36% | 1011.9 hPa | - | - | - | - |
| 1778232183 | 33.33° C | 37% | 1011.9 hPa | - | - | - | - |
| 1778231583 | 33.33° C | 37% | 1007.2 hPa | - | - | - | - |
| 1778230983 | 32.78° C | 37% | 1000.8 hPa | - | - | - | - |
| 1778230383 | 32.78° C | 37% | 1000.4 hPa | - | - | - | - |
* Rain since midnight (hover to see other rain measurements)
** Current wind speed in m/s (hover to see current wind gust speed)